Weather in Egirdir

Turkey     37°52′31″N   30°49′44″E
temp.,
°C
wind,
m/s
gust,
m/s
humid.,
%
clouds,
%
prec.,
mm/h
press.,
hPa
HPBL,
m
19 may, wed
wed1900:00+14wsw34640 0.0 1014111
03:00+12w22630 0.0 101580
06:00+11nnw11670 0.0 1016192
09:00+16nne11500 0.0 1016718
12:00+19se12370 0.0 10151046
15:00+22s24260 0.0 10131468
18:00+23wsw24230 0.0 10111234
21:00+17ssw44590 0.0 1013114
20 may, thu
thu2000:00+16sw33530 0.0 101392
03:00+15sw33480 0.0 101284
06:00+15ssw33510 0.0 101295
09:00+20ssw34340 0.0 1011484
12:00+24ssw68260 0.0 10101369
15:00+26s710240 0.0 10091966
18:00+23s78370 0.0 1009817
21:00+17ssw44520 0.0 1012129
21 may, fri
fri2100:00+15sw44520 0.0 1012100
03:00+15ssw33490 0.0 101196
06:00+14ssw33490 0.0 101098
09:00+19ssw44360 0.0 1009477
12:00+22ssw712330 0.0 10071771
15:00+23s812374 0.0 10052097
18:00+19ssw695395 0.1 10071540
21:00+15wnw334787 0.4 1009406
22 may, sat
sat2200:00+11w236512 0.0 1011172
03:00+9w2370100 0.0 1010268
06:00+9wnw2273100 0.1 1011375
09:00+10nw126272 0.3 10111045
12:00+11nw125399 0.2 10121318
15:00+14nnw444656 0.5 10111744
18:00+14nnw574315 0.2 10101756
21:00+11nnw67676 0.2 1012498
23 may, sun
sun2300:00+10nnw56745 0.0 1013378
03:00+8nw348137 0.0 1013325
06:00+8nw238124 0.0 1014228
09:00+12nnw246624 0.0 1013778
12:00+16n345521 0.0 10121100
15:00+18n665025 0.0 10121599
18:00+19n454912 0.0 10121408
21:00+16n23580 0.0 1013252